Weather History for Luverne, MN

Change the Weather History Date:

Saturday, December 29, 2012

  Actual Average (KFSD) Record (KFSD)
Temperature  
Mean Temperature 6 °F 17 °F  
Max Temperature 14 °F 26 °F 56 °F (1999)
Min Temperature -2 °F 7 °F -31 °F (1917)
Degree Days  
Heating Degree Days 59 48  
Month to date heating degree days 1323  
Since 1 July heating degree days 3035  
Cooling Degree Days 0 0  
Month to date cooling degree days 0  
Year to date cooling degree days 690  
Moisture  
Dew Point 3 °F    
Average Humidity 84    
Maximum Humidity 92    
Minimum Humidity 78    
Precipitation  
Precipitation 0.00 in 0.01 in 0.40 in (1907)
Month to date precipitation 0.65  
Year to date precipitation 26.34  
Snow  
Snow 0.00 in 0.20 in 4.00 in (1923)
Month to date snowfall 7.7  
Since 1 July snowfall 16.4  
Snow Depth -    
Sea Level Pressure  
Sea Level Pressure 30.10 in    
Wind  
Wind Speed 4 mph (West)    
Max Wind Speed 9 mph    
Max Gust Speed -    
Visibility 4 miles    
Events Snow    
T = Trace of Precipitation, MM = Missing Value Source: NWS Daily Summary

Daily Weather History Graph

Daily Weather History Graph

Search for Another Location

Airport:

Trip Planner

Search our weather history database for the weather conditions in past years. The results will help you decide how hot, cold, wet, or windy it might be!

Date:

Astronomy

Dec. 29, 2012 Rise Set
Actual Time 7:58 AM CST 4:56 PM CST
Civil Twilight 7:25 AM CST 5:29 PM CST
Nautical Twilight 6:49 AM CST 6:05 PM CST
Astronomical Twilight 6:14 AM CST 6:40 PM CST
Moon 6:33 PM CST (12/29) 8:29 AM CST (12/29)
Length of Visible Light 10h 04m
Length of Day
8h 58m
Full, 98% of the Moon is Illuminated
Dec 29
Full
Jan 4
Last Quarter
Jan 11
New
Jan 18
First Quarter
Jan 26
Full

Hourly Weather History & Observations

Time (CST) Temp. Windchill Dew Point Humidity Pressure Visibility Wind Dir Wind Speed Gust Speed Precip Events Conditions
12:15 AM 14.0 °F 6.5 °F 10.4 °F 86% 30.06 in 5.0 mi NW 4.6 mph - N/A Snow Light Snow
12:35 AM 14.0 °F 6.5 °F 10.4 °F 86% 30.06 in 4.0 mi WNW 4.6 mph - N/A Snow Light Snow
12:56 AM 14.0 °F 3.9 °F 10.4 °F 86% 30.06 in 5.0 mi WNW 6.9 mph - N/A Snow Light Snow
1:15 AM 14.0 °F 5.1 °F 10.4 °F 86% 30.06 in 5.0 mi WNW 5.8 mph - N/A Snow Light Snow
1:35 AM 14.0 °F 3.9 °F 10.4 °F 86% 30.06 in 4.0 mi WNW 6.9 mph - N/A Snow Light Snow
1:55 AM 14.0 °F 3.9 °F 10.4 °F 86% 30.06 in 4.0 mi WNW 6.9 mph - N/A Snow Light Snow
2:15 AM 14.0 °F 2.9 °F 10.4 °F 86% 30.06 in 3.0 mi NW 8.1 mph - N/A Snow Light Snow
2:36 AM 14.0 °F 3.9 °F 10.4 °F 86% 30.06 in 2.5 mi WNW 6.9 mph - N/A Snow Light Snow
2:55 AM 12.2 °F 4.3 °F 10.4 °F 92% 30.07 in 3.0 mi NW 4.6 mph - N/A Snow Light Snow
3:15 AM 12.2 °F - 10.4 °F 92% 30.06 in 2.5 mi Calm Calm - N/A Snow Light Snow
3:36 AM 12.2 °F 4.3 °F 8.6 °F 85% 30.06 in 7.0 mi West 4.6 mph - N/A Snow Light Snow
3:55 AM 12.2 °F 2.9 °F 8.6 °F 85% 30.08 in 7.0 mi West 5.8 mph - N/A Snow Light Snow
4:15 AM 12.2 °F -0.2 °F 8.6 °F 85% 30.09 in 4.0 mi WNW 9.2 mph - N/A Snow Light Snow
4:36 AM 10.4 °F -0.4 °F 6.8 °F 85% 30.08 in 3.0 mi WNW 6.9 mph - N/A Snow Light Snow
4:55 AM 10.4 °F 0.8 °F 6.8 °F 85% 30.08 in 3.0 mi West 5.8 mph - N/A Snow Light Snow
5:15 AM 10.4 °F 2.2 °F 6.8 °F 85% 30.08 in 3.0 mi West 4.6 mph - N/A Snow Light Snow
5:36 AM 10.4 °F 4.0 °F 6.8 °F 85% 30.09 in 3.0 mi WNW 3.5 mph - N/A Snow Light Snow
6:15 AM 10.4 °F 2.2 °F 6.8 °F 85% 30.08 in 3.0 mi West 4.6 mph - N/A Snow Light Snow
6:35 AM 10.4 °F 4.0 °F 6.8 °F 85% 30.09 in 4.0 mi West 3.5 mph - N/A   Overcast
6:55 AM 10.4 °F 4.0 °F 5.0 °F 79% 30.09 in 3.0 mi WSW 3.5 mph - N/A Snow Light Snow
7:16 AM 10.4 °F 4.0 °F 5.0 °F 79% 30.09 in 3.0 mi West 3.5 mph - N/A Snow Light Snow
7:35 AM 8.6 °F 0.1 °F 5.0 °F 85% 30.09 in 4.0 mi West 4.6 mph - N/A Snow Light Snow
7:55 AM 8.6 °F 0.1 °F 5.0 °F 85% 30.10 in 2.0 mi West 4.6 mph - N/A   Overcast
8:16 AM 8.6 °F 2.0 °F 5.0 °F 85% 30.10 in 2.5 mi WSW 3.5 mph - N/A Snow Light Snow
8:35 AM 8.6 °F 2.0 °F 3.2 °F 79% 30.10 in 0.8 mi WSW 3.5 mph - N/A Snow Light Snow
8:55 AM 6.8 °F - 3.2 °F 85% 30.11 in 0.8 mi Calm Calm - N/A Snow Light Snow
9:16 AM 6.8 °F -0.1 °F 3.2 °F 85% 30.11 in 0.8 mi WSW 3.5 mph - N/A Snow Light Snow
9:35 AM 5.0 °F - 1.4 °F 85% 30.11 in 0.5 mi Calm Calm - N/A Snow Light Snow
9:55 AM 5.0 °F - 1.4 °F 85% 30.12 in 1.2 mi Calm Calm - N/A   Haze
10:16 AM 5.0 °F - 1.4 °F 85% 30.12 in 4.0 mi Calm Calm - N/A Snow Light Snow
10:35 AM 5.0 °F - 1.4 °F 85% 30.12 in 4.0 mi Calm Calm - N/A Snow Light Snow
10:55 AM 5.0 °F - 1.4 °F 85% 30.11 in 3.0 mi Calm Calm - N/A Snow Light Snow
11:16 AM 6.8 °F - 3.2 °F 85% 30.12 in 3.0 mi Calm Calm - N/A Snow Light Snow
11:35 AM 8.6 °F - 3.2 °F 79% 30.11 in 2.0 mi Calm Calm - N/A Snow Light Snow
11:55 AM 8.6 °F 2.0 °F 3.2 °F 79% 30.10 in 1.5 mi West 3.5 mph - N/A Snow Light Snow
12:15 PM 8.6 °F 2.0 °F 5.0 °F 85% 30.10 in 1.5 mi West 3.5 mph - N/A Snow Light Snow
12:35 PM 8.6 °F -1.3 °F 5.0 °F 85% 30.10 in 1.8 mi WSW 5.8 mph - N/A Snow Light Snow
12:56 PM 8.6 °F -1.3 °F 5.0 °F 85% 30.10 in 2.5 mi WSW 5.8 mph - N/A Snow Light Snow
1:15 PM 8.6 °F 0.1 °F 5.0 °F 85% 30.09 in 1.2 mi SW 4.6 mph - N/A Snow Light Snow
1:35 PM 10.4 °F 0.8 °F 6.8 °F 85% 30.09 in 1.2 mi WSW 5.8 mph - N/A Snow Light Snow
1:56 PM 10.4 °F 4.0 °F 6.8 °F 85% 30.08 in 2.5 mi WSW 3.5 mph - N/A Snow Light Snow
2:15 PM 12.2 °F 6.1 °F 8.6 °F 85% 30.08 in 5.0 mi SW 3.5 mph - N/A Snow Light Snow
2:35 PM 12.2 °F 6.1 °F 8.6 °F 85% 30.09 in 2.0 mi SW 3.5 mph - N/A Snow Light Snow
2:56 PM 12.2 °F - 8.6 °F 85% 30.09 in 1.8 mi Calm Calm - N/A Snow Light Snow
3:15 PM 14.0 °F 5.1 °F 10.4 °F 86% 30.10 in 1.8 mi WSW 5.8 mph - N/A Snow Light Snow
3:35 PM 14.0 °F 6.5 °F 10.4 °F 86% 30.10 in 4.0 mi WSW 4.6 mph - N/A Snow Light Snow
3:56 PM 14.0 °F 6.5 °F 10.4 °F 86% 30.11 in 5.0 mi WSW 4.6 mph - N/A Snow Light Snow
4:15 PM 12.2 °F 4.3 °F 8.6 °F 85% 30.11 in 5.0 mi SW 4.6 mph - N/A   Scattered Clouds
4:35 PM 6.8 °F -2.0 °F 3.2 °F 85% 30.11 in 5.0 mi WSW 4.6 mph - N/A   Clear
4:55 PM 3.2 °F - -0.4 °F 85% 30.11 in 5.0 mi Calm Calm - N/A   Clear
5:15 PM 5.0 °F -6.9 °F 1.4 °F 85% 30.11 in 7.0 mi WSW 6.9 mph - N/A   Clear
5:35 PM 3.2 °F - -0.4 °F 85% 30.11 in 7.0 mi Calm Calm - N/A   Clear
5:55 PM 3.2 °F - -2.2 °F 78% 30.11 in 5.0 mi Calm Calm - N/A   Haze
6:15 PM 3.2 °F - -0.4 °F 85% 30.11 in 5.0 mi Calm Calm - N/A   Clear
6:35 PM 1.4 °F - -2.2 °F 85% 30.12 in 5.0 mi Calm Calm - N/A   Clear
6:55 PM 3.2 °F - -0.4 °F 85% 30.12 in 5.0 mi Calm Calm - N/A   Clear
7:15 PM 3.2 °F - -2.2 °F 78% 30.13 in 5.0 mi Calm Calm - N/A   Haze
7:35 PM 1.4 °F - -4.0 °F 78% 30.13 in 4.0 mi Calm Calm - N/A   Clear
7:55 PM -0.4 °F - -5.8 °F 78% 30.14 in 4.0 mi Calm Calm - N/A   Haze
8:15 PM 1.4 °F - -4.0 °F 78% 30.14 in 5.0 mi Calm Calm - N/A   Clear
8:36 PM 1.4 °F - -4.0 °F 78% 30.14 in 5.0 mi Calm Calm - N/A   Haze
8:55 PM 1.4 °F - -2.2 °F 85% 30.14 in 7.0 mi Calm Calm - N/A   Clear
9:15 PM -0.4 °F - -5.8 °F 78% 30.14 in 5.0 mi Calm Calm - N/A   Haze
9:35 PM -0.4 °F - -4.0 °F 85% 30.14 in 5.0 mi Calm Calm - N/A   Clear
9:55 PM 1.4 °F - -4.0 °F 78% 30.14 in 7.0 mi Calm Calm - N/A   Clear
10:16 PM 1.4 °F - -4.0 °F 78% 30.14 in 5.0 mi Calm Calm - N/A   Clear
10:35 PM -2.2 °F - -7.6 °F 78% 30.14 in 7.0 mi Calm Calm - N/A   Clear
10:55 PM -0.4 °F - -5.8 °F 78% 30.15 in 7.0 mi Calm Calm - N/A   Clear
11:16 PM -0.4 °F - -5.8 °F 78% 30.16 in 7.0 mi Calm Calm - N/A   Clear
11:35 PM -2.2 °F - -7.6 °F 78% 30.15 in 7.0 mi Calm Calm - N/A   Clear
11:55 PM -2.2 °F - -7.6 °F 78% 30.15 in 7.0 mi Calm Calm - N/A   Clear